www.pogodaiklimat.ru

Погода и климат >> Архив погоды >> Австралия >> Северная территория >> Ладжаману


ПОГОДА в Ладжаману

  • Прогноз погоды в Ладжаману
  • Монитор погоды в Ладжаману

АРХИВ ПОГОДЫ в Ладжаману

Время (UTC), дата Ветер
(напр.,м/с)
 
Видим.   Явления Облачность Т
(С)
Тd
(С)
f
(%)
Тe
(С)
Тes
(С)
Комфортность P
(гПа)
Po
(гПа)
Тmin
(С)
Tmax
(С)
R
(мм)
R24
(мм)
S
(см)
02 17.02 З 3 н/о н/о +37.5 +14.1 25 +38 +38 очень
жарко
1008.5 973.6 +26.2
05 17.02 В 3 н/о н/о +42.1 +9.1 14 +40 +40 очень
жарко
1005.1 970.3
08 17.02 С 4 н/о н/о +39.2 +6.8 14 +37 +37 очень
жарко
1003.2 968.4
11 17.02 С 5 н/о н/о +31.8 +14.4 35 +34 +34 душно 1006.1 971.2
14 17.02 СЗ 4 н/о н/о +30.7 +15.2 39 +33 +33 душно 1006.9 972.0 +42.3
17 17.02 СЗ 3 н/о н/о +30.2 +13.9 37 +32 +32 жарко 1006.3 971.4
20 17.02 СЗ 4 н/о н/о +28.1 +16.4 49 +32 +32 душно 1006.4 971.5
23 17.02 З 5 н/о н/о +30.6 +19.6 52 +37 +37 очень
душно
1008.1 973.2
02 18.02 З 4 н/о н/о +37.8 +16.7 29 +40 +40 очень
душно
1007.8 972.9 +27.6
05 18.02 С 6 н/о н/о +41.8 +7.8 13 +40 +40 очень
жарко
1005.0 970.2
08 18.02 СВ 3 н/о н/о +40.8 +5.8 12 +38 +38 очень
жарко
1003.6 968.8
11 18.02 СЗ 5 н/о н/о +35.2 +12.8 26 +35 +35 очень
жарко
1005.4 970.6
14 18.02 СЗ 5 н/о н/о +32.0 +13.7 33 +33 +33 жарко 1007.0 972.1 +44.2
17 18.02 СЗ 3 н/о н/о +29.5 +13.7 38 +31 +31 жарко 1006.5 971.6
20 18.02 СЗ 3 н/о н/о +28.6 +14.4 42 +31 +31 жарко 1006.6 971.7
23 18.02 З 5 н/о н/о +31.4 +15.8 39 +34 +34 душно 1008.6 973.7
02 19.02 З 6 н/о н/о +38.3 +17.1 29 +41 +41 опасность
перегрева
1008.3 973.4 +28.0
05 19.02 ЮЗ 3 н/о н/о +42.1 +10.1 15 +41 +41 опасность
перегрева
1005.0 970.2
08 19.02 СЗ 4 н/о {туман} н/о +34.5 +14.4 30 +36 +36 душно 1005.1 970.3
11 19.02 З 3 н/о {туман} н/о +30.1 +13.8 37 +32 +32 жарко 1006.2 971.3 0.6
14 19.02 С 4 н/о н/о +29.0 +15.9 45 +32 +32 душно 1007.7 972.8 +43.4
17 19.02 СЗ 5 н/о н/о +28.6 +15.5 45 +31 +31 жарко 1007.4 972.5
20 19.02 СЗ 5 н/о н/о +27.7 +16.6 51 +31 +31 душно 1008.7 973.8
23 19.02 СЗ 6 н/о н/о +29.7 +20.8 59 +37 +37 очень
душно
1010.9 975.9 0.6
02 20.02 С 4 н/о н/о +35.8 +16.0 31 +38 +38 очень
душно
1011.2 976.2 +26.9
05 20.02 З 4 н/о н/о +39.3 +15.0 24 +40 +40 очень
душно
1007.4 972.5
08 20.02 СЗ 4 н/о н/о +40.8 +11.8 18 +40 +40 очень
жарко
1005.3 970.5
11 20.02 С 3 н/о н/о +36.1 +10.3 21 +35 +35 очень
жарко
1006.5 971.6
14 20.02 СЗ 4 н/о н/о +33.8 +14.3 31 +35 +35 очень
жарко
1008.0 973.1 +41.5
17 20.02 В 4 н/о н/о +32.2 +17.7 42 +36 +36 очень
душно
1008.7 973.8
20 20.02 ЮЗ 5 н/о н/о +31.9 +14.1 34 +33 +33 жарко 1007.9 973.0
23 20.02 С 3 н/о н/о +33.0 +13.6 31 +34 +34 очень
жарко
1010.1 975.1
02 21.02 ЮЗ 4 н/о н/о +38.2 +12.7 22 +38 +38 очень
жарко
1010.0 975.0 +29.4
05 21.02 Ю 4 н/о н/о +40.7 +10.9 17 +40 +40 очень
жарко
1006.4 971.5
08 21.02 З 8 н/о н/о +34.9 +13.1 27 +35 +35 очень
жарко
1005.1 970.3
11 21.02 З 5 н/о н/о +32.5 +13.7 32 +34 +34 очень
жарко
1006.7 971.8
14 21.02 ЮЗ 4 н/о н/о +30.8 +15.2 39 +33 +33 душно 1009.3 974.3 +43.0
17 21.02 З 2 н/о н/о +28.9 +16.1 46 +32 +32 душно 1007.3 972.4
20 21.02 ЮЗ 3 н/о н/о +29.3 +16.1 45 +32 +32 душно 1007.6 972.7
23 21.02 ЮВ 5 н/о н/о +33.1 +12.1 28 +33 +33 жарко 1010.2 975.2
02 22.02 В 6 н/о н/о +39.5 -2.6 7 +35 +35 очень
жарко
1009.9 974.9 +28.4
05 22.02 Ю 3 н/о н/о +40.6 -1.9 7 +37 +37 очень
жарко
1006.9 972.0
08 22.02 ЮЗ 3 н/о н/о +40.6 -1.9 7 +37 +37 очень
жарко
1004.9 970.1
11 22.02 ЮВ 3 н/о н/о +33.3 -1.1 11 +30 +30 жарко 1006.5 971.6
14 22.02 ЮВ 2 н/о н/о +28.1 -0.9 15 +26 +26 жарко 1007.6 972.7 +42.9
17 22.02 штиль 0 н/о н/о +26.1 +1.4 20 +25 +25 комфорт 1006.5 971.6
20 22.02 ЮВ 3 н/о н/о +26.3 +0.9 19 +25 +25 комфорт 1007.1 972.2
23 22.02 ЮВ 5 н/о н/о +30.6 -3.2 11 +27 +27 жарко 1009.5 974.5
02 23.02 В 6 н/о н/о +38.2 -3.6 7 +34 +34 очень
жарко
1008.9 973.9 +22.5
05 23.02 Ю 2 н/о н/о +40.4 -4.1 6 +36 +36 очень
жарко
1005.6 970.8
08 23.02 ЮЗ 2 н/о н/о +40.4 -4.1 6 +36 +36 очень
жарко
1004.2 969.4
11 23.02 ЮВ 3 н/о н/о +32.4 -3.1 10 +29 +29 жарко 1005.6 970.8
14 23.02 ЮВ 2 н/о н/о +28.6 -3.6 12 +26 +26 жарко 1006.9 972.0 +42.3
17 23.02 штиль 0 н/о н/о +23.1 -2.5 18 +22 +22 комфорт 1006.0 971.1
23 23.02 С 4 н/о н/о +28.8 -2.3 13 +26 +26 жарко 1007.5 972.6
02 24.02 В 4 н/о н/о +39.5 -7.1 5 +35 +35 очень
жарко
1007.3 972.4 +20.1

 

Местоположение метеостанции Ладжаману (Северная территория, Австралия): широта -18.33 долгота 130.63 высота над уровнем моря 317 м.

В архиве по умолчанию представлена погода в Ладжаману за последнюю неделю. Архивные данные за месяц целиком и за предыдущие месяцы, начиная с января 2011 года, Вы можете получить, выбрав интересующий диапазон дат из раскрывающегося списка и нажав кнопку "Ввод!".


*Определитесь, кто Вы:
робот инопланетянин человек

Внимание! Время в таблицах - всемирное. Для получения местного времени необходимо прибавить поправку, которая равна 9.5 ч.

Смотрите также архив погоды в соседних городах и на ближайших метеорологических станциях:

Погода в Раббит Флат (Северная территория, Австралия) (216 км)
Погода в Виктория-Ривер (Северная территория, Австралия) (219 км)
Погода в Аэропорту Аргайл (Западная Австралия, Австралия) (299 км)
Погода в Холс Крик (Западная Австралия, Австралия) (314 км)
Погода на Базе ВВС Delamere Weapons Range (Северная территория, Австралия) (318 км)
Погода в Кунунарре (Западная Австралия, Австралия) (349 км)
Погода в Дейли Уотерс (Северная территория, Австралия) (372 км)
Погода в Манбуллу Ксиро (Северная территория, Австралия) (376 км)
Погода в Теннант-Крике (Северная территория, Австралия) (400 км)
Погода в Уиндеме (Западная Австралия, Австралия) (411 км)

Пояснения к столбцам:

Ветер - указаны скорость ветра в м/с - средняя за 10 мин, порывы в срок и между сроками (в фигурных скобках) и направление, откуда дует ветер: С - северный, СВ - северо-восточный, В - восточный, ЮВ - юго-восточный, Ю - южный, ЮЗ - юго-западный, З - западный, СЗ - северо-западный.
Видимость - горизонтальная дальность видимости в метрах или километрах. При видимости от 1 до 10 км при отсутствии осадков обычно наблюдается дымка, при ухудшении видимости до 1 км и менее - туман. В сухую погоду видимость может ухудшаться дымом, пылью или мглою.
Явления - указаны атмосферные явления, наблюдавшиеся в срок или в последний час перед сроком; фигурными скобками обозначены явления, наблюдавшиеся между сроками (за 1-3 часа до срока); квадратными скобками обозначены град или гололедные отложения с указанием их диаметра в мм.
Облачность - указаны через наклонную черту общая и нижняя облачность в баллах и высота нижней границы облаков в метрах; квадратными скобками обозначены формы облаков: Ci - перистые, Cs - перисто-слоистые, Cc - перисто-кучевые, Ac - высококучевые, As - высокослоистые, Sc - слоисто-кучевые, Ns - слоисто-дождевые, Cu - кучевые, Cb - кучево-дождевые. Подробнее классификацию облаков см. в Атласе облаков (PDF).
T - Температура воздуха - температура, измеренная на высоте 2 м над землей.
Td - Температура точки росы - температура, при понижении до которой содержащийся в воздухе водяной пар достигнет насыщения.
f - Относительная влажность воздуха - влажноcть воздуха, измеренная на высоте 2 м над землей.
Te - Эффективная температура - температура, которую ощущает одетый по сезону человек в тени. Характеристика душности погоды. При расчете учитывается влияние влажности воздуха и скорости ветра на теплоощущения человека.
Tes - Эффективная температура на солнце - температура, которую ощущает человек, с поправкой на солнечный нагрев. Характеристика знойности погоды. Зависит от высоты солнца над горизонтом, облачности и скорости ветра. Ночью, в пасмурную погоду, а также при ветре 12 м/с и более поправка равна нулю.
P - Атмосферное давление - приведенное к уровню моря атмосферное давление.
Po - Атмосферное давление - измеренное на уровне метеостанции атмосферное давление.
Tmin - Минимальная температура - минимум температуры воздуха на высоте 2 м над землей.
Tmax - Максимальная температура - максимум температуры воздуха на высоте 2 м над землей.
R - Количество осадков - Количество выпавших осадков за период времени, мм. При наведении курсора мыши на число - период времени, за который выпало указанное количество осадков.
R24 - Количество осадков - Количество выпавших осадков за 24 часа, мм.
S - Снежный покров - Высота снежного покрова, см. При наведении курсора мыши на число - состояние снежного покрова и степень покрытия местности в баллах.